sat.trackr.live / text

‹ back to catalog

GEESAT-2 04

NORAD 58908 · 2024-023D

PAYLOAD ACTIVE UNKNOWN

§ Identity

Operator
Country
PRC
Launch date
2024-02-02
Launch site
XICLF
Launch vehicle
Mass (kg)
RCS (m²)

External: N2YO · Heavens-Above · Gunter

§ Orbital elements

Epoch: 2026-05-25T04:38:11.946912Z

Period
96.19 min
Inclination
49.9925°
Eccentricity
0.0006464
Mean motion
14.97049033 rev/d
Perigee alt
571.5 km
Apogee alt
580.5 km
Semi-major
6,954.2 km
B*
2.0199e-4
RAAN
72.1049°
Arg perigee
310.4360°
Mean anomaly
49.6020°
Rev number
12,588

§ Raw data

GEESAT-2 041 58908U 24023D   26145.19319383  .00002100  00000+0  20199-3 0  99922 58908  49.9925  72.1049 0006464 310.4360  49.6020 14.97049033125885

JSON: /api/v1/satellites/58908 · /tle

For live sub-satellite position, see the globe view (requires WebGL).

§ Visibility from observer

Set your observer location to see the next 7 days of passes ≥ 10°. The values pass through the URL so the page stays shareable.

No JS? Fill the form by hand. The geolocation button needs JavaScript.